Temperature
16 15 14 14 14 14 14 14 14 13 13 12 12 11 11 11 10 10 10 10 10 11 11 11 10 10 10 11 11 11 11 11 12 12 12 12 12 12 12 12 12 12 12
15 14 14 13 13 13 13 13 13 13 12 12 11 10 10 10 10 10 10 10 10 10 10 10 10 10 10 10 10 11 11 11 11 11 11 11 12 11 12 12 12 12 12
14 14 13 13 13 13 13 13 13 12 12 11 10 10 10 10 10 10 10 10 10 9 9 9 9 9 9 9 9 10 10 10 10 10 10 9 9 9 10 10 11 11 11
14 12 12 12 12 13 13 13 12 12 11 10 10 10 9 9 9 9 9 9 9 9 9 9 9 9 9 9 9 9 9 9 9 9 9 8 8 8 8 8 9 9 10
15 13 12 12 12 12 12 12 12 11 11 10 10 9 9 9 9 9 9 9 8 8 8 8 8 8 8 8 8 8 8 8 8 8 8 8 8 7 7 7 8 9 9
15 14 12 12 12 12 12 12 12 11 10 10 9 9 9 9 8 8 8 8 8 8 8 8 8 8 8 8 8 8 8 8 8 8 8 7 7 7 7 7 7 7 8
13 13 13 12 12 12 12 12 11 11 10 9 9 9 9 8 8 8 8 8 8 8 8 8 7 7 7 7 7 7 7 7 7 7 7 7 7 7 7 7 7 7 7
11 12 12 11 12 12 12 11 11 11 10 10 9 9 8 8 8 8 8 8 8 7 7 7 7 7 7 7 7 7 7 7 7 7 7 7 7 7 7 7 7 6 6
9 10 10 10 11 11 11 11 11 11 10 10 9 9 8 8 7 7 7 7 7 7 7 7 7 7 7 7 7 7 7 7 7 7 7 7 7 7 7 7 6 6 6
8 9 9 9 10 11 11 11 11 10 10 10 9 9 8 7 7 7 7 7 7 6 6 6 6 6 6 6 6 6 6 6 6 6 6 7 7 7 6 6 6 6 6
6 6 7 8 9 10 10 10 10 10 10 9 9 8 8 7 7 6 6 6 6 6 6 5 5 5 5 5 5 5 6 6 6 6 6 6 6 6 6 6 6 5 5
4 4 5 6 7 8 9 9 9 9 9 8 8 7 7 6 6 6 6 6 6 5 5 4 4 4 4 4 4 4 4 4 5 5 5 5 6 6 6 6 5 5 5
3 3 3 4 5 7 8 8 7 7 7 6 6 5 5 6 5 5 5 5 4 4 3 3 3 3 2 2 2 2 2 2 3 3 4 4 5 5 5 5 5 4 4
3 2 2 2 2 3 4 4 4 5 5 4 4 4 5 5 5 4 3 3 2 1 1 0 0 -0 -0 0 1 1 1 1 1 2 2 3 3 3 3 3 3 3 3
2 2 1 -0 -0 -0 0 1 2 2 2 2 4 4 4 4 3 2 2 1 -0 -1 -2 -1 -1 -1 -0 -0 0 0 0 0 1 1 1 1 1 2 2 2 1 1 1
3 2 1 -0 -1 -1 -1 -0 0 0 1 2 2 3 2 2 1 0 -0 -1 -2 -3 -3 -2 -2 -1 -1 -1 -1 -1 -1 -1 -0 0 0 0 1 1 1 1 0 0 0
3 3 2 1 0 0 -0 -0 -1 -1 -1 -0 0 1 -0 -1 -1 -2 -2 -3 -4 -4 -4 -3 -3 -2 -2 -3 -3 -3 -2 -2 -2 -2 -2 -1 -1 -1 -1 -2 -2 -1 -1
3 3 2 2 1 0 0 -0 -1 -2 -2 -2 -2 -2 -3 -3 -3 -4 -4 -4 -5 -5 -5 -5 -4 -4 -4 -4 -4 -5 -4 -4 -4 -4 -4 -3 -3 -3 -4 -4 -4 -3 -3
2 3 2 1 1 -0 -1 -1 -2 -3 -4 -4 -4 -4 -4 -5 -5 -5 -5 -5 -5 -6 -6 -6 -5 -5 -5 -5 -5 -6 -6 -6 -5 -5 -5 -5 -5 -6 -6 -6 -6 -5 -4
2 2 2 1 -0 -1 -1 -2 -3 -4 -5 -5 -5 -5 -5 -5 -6 -6 -6 -6 -6 -6 -7 -7 -6 -6 -6 -6 -6 -7 -7 -7 -7 -6 -6 -6 -8 -8 -8 -8 -7 -7 -6
1 1 1 0 -1 -2 -3 -3 -4 -5 -6 -6 -6 -6 -6 -7 -7 -7 -7 -7 -7 -7 -7 -8 -8 -7 -7 -7 -8 -9 -9 -9 -8 -7 -7 -7 -8 -8 -8 -8 -8 -8 -8
-0 0 -0 -1 -2 -3 -4 -4 -5 -6 -7 -7 -7 -7 -7 -8 -8 -8 -8 -8 -8 -8 -8 -8 -8 -8 -8 -8 -9 -10 -10 -10 -9 -8 -8 -8 -8 -7 -7 -7 -8 -8 -8
-1 -1 -1 -2 -3 -4 -5 -5 -7 -7 -7 -7 -7 -8 -8 -9 -9 -9 -9 -9 -9 -9 -9 -9 -9 -9 -9 -9 -10 -10 -10 -11 -10 -9 -9 -9 -8 -8 -7 -7 -7 -7 -8
-1 -2 -3 -4 -5 -6 -6 -7 -8 -8 -8 -8 -9 -9 -9 -9 -9 -9 -9 -9 -9 -10 -10 -10 -9 -9 -9 -10 -10 -11 -11 -11 -10 -10 -9 -9 -9 -9 -9 -8 -8 -8 -9
-3 -4 -5 -6 -7 -7 -8 -8 -8 -8 -9 -10 -10 -10 -10 -10 -9 -9 -9 -9 -10 -11 -11 -11 -10 -10 -10 -10 -10 -11 -11 -12 -12 -11 -10 -10 -9 -9 -9 -9 -9 -9 -9
-6 -6 -7 -7 -8 -9 -9 -9 -9 -9 -10 -10 -10 -10 -10 -10 -10 -10 -10 -10 -10 -11 -11 -11 -11 -11 -11 -11 -11 -12 -12 -12 -12 -11 -11 -11 -11 -11 -11 -11 -11 -10 -11
Wind_Speed
8 7 8 7 6 5 6 5 5 4 4 4 3 3 3 3 3 4 5 6 5 4 3 3 4 4 4 4 4 3 3 2 1 1 1 2 4 5 5 5 5 6 7
7 8 8 7 6 6 6 6 6 5 3 3 2 2 0 1 2 2 4 6 6 6 4 4 3 3 3 5 4 3 2 2 2 2 2 2 4 2 4 4 5 6 5
10 10 9 9 6 7 8 7 7 6 4 3 2 2 2 2 3 3 3 4 4 4 4 4 3 2 3 3 3 3 3 2 3 3 3 2 1 3 3 3 3 4 5
9 8 8 9 8 8 8 8 8 6 5 4 3 3 3 2 2 2 2 3 2 2 3 3 3 2 2 3 2 2 2 3 2 2 1 2 3 1 4 4 3 4 6
9 8 8 9 9 8 8 8 7 6 5 4 4 4 3 2 2 2 3 3 2 1 1 2 2 2 1 2 2 3 3 3 3 3 2 1 1 3 3 3 5 5 5
9 7 8 8 8 7 6 6 7 6 5 4 4 3 3 3 3 2 2 2 2 2 3 3 3 2 1 2 3 4 4 4 4 4 4 4 3 4 4 4 4 5 5
10 7 9 9 9 9 8 7 7 6 4 3 2 2 3 2 2 2 1 1 2 3 5 4 3 3 3 4 4 4 5 5 5 6 5 5 5 4 4 4 4 4 4
14 11 10 9 9 10 9 8 9 8 5 4 2 3 2 2 1 1 2 2 2 2 4 4 4 4 4 4 4 4 6 5 6 7 6 5 6 5 5 4 4 3 3
21 16 12 10 10 10 10 9 9 7 6 6 7 7 6 5 5 5 4 4 3 3 5 4 4 4 4 3 3 3 4 4 6 7 7 6 5 5 5 5 5 4 5
19 17 13 11 11 10 9 8 9 8 8 9 9 8 7 5 4 4 4 4 3 4 4 4 5 5 4 4 3 3 4 5 6 5 6 6 5 5 5 5 5 5 5
19 18 16 14 13 12 11 9 7 7 8 9 10 9 6 4 3 4 4 4 3 4 5 5 6 6 6 5 4 5 5 6 7 6 6 7 6 5 5 4 4 4 4
19 20 21 20 17 15 11 7 6 7 8 8 9 9 5 3 4 4 3 3 4 4 5 6 6 6 6 6 6 6 5 5 6 7 6 7 5 6 4 4 4 3 3
18 19 22 22 19 14 4 6 7 8 8 8 10 7 3 2 3 2 2 3 3 4 5 5 6 6 7 6 5 4 2 3 4 4 4 4 2 3 1 2 1 1 1
15 17 18 18 16 11 7 7 7 6 8 9 7 5 2 2 2 2 2 3 4 4 5 5 6 6 6 4 1 3 5 6 8 9 8 7 6 4 2 1 1 1 2
12 12 12 12 12 11 9 8 7 6 7 6 5 3 2 2 2 2 3 4 5 5 5 5 4 5 6 8 9 8 9 10 10 10 10 10 13 14 10 6 5 3 2
11 8 7 7 8 8 8 7 7 6 3 2 2 1 1 2 2 3 4 5 5 5 5 6 8 9 9 14 16 12 10 10 10 9 9 9 11 13 14 13 12 10 7
13 9 8 6 4 1 2 4 5 4 4 3 4 5 4 4 4 4 5 6 5 5 6 7 7 8 11 15 14 15 9 8 8 7 7 7 9 10 7 9 12 11 13
15 12 10 9 6 3 2 1 2 3 5 6 6 6 6 6 5 4 5 5 4 5 5 6 7 7 10 14 14 13 8 6 7 7 6 6 7 9 10 9 7 6 8
16 13 8 5 3 1 2 3 4 5 6 7 6 6 6 6 5 4 5 5 5 5 5 5 6 7 9 13 12 10 5 5 6 6 7 8 7 12 16 11 9 8 8
14 9 5 6 5 3 4 5 5 5 6 7 7 6 6 5 4 4 4 4 5 5 4 5 5 6 7 11 11 9 4 4 4 4 6 11 11 14 15 10 8 8 9
10 2 8 7 5 4 5 6 5 5 6 6 6 6 6 5 5 4 4 4 4 4 3 4 4 5 7 9 10 9 4 4 4 4 5 6 14 15 15 11 6 11 12
1 8 9 8 6 6 6 6 4 4 5 4 4 5 6 6 5 5 5 5 4 3 3 2 3 3 5 8 8 9 8 7 4 5 5 7 15 15 13 10 11 15 12
4 9 10 9 8 7 6 5 4 5 5 4 5 5 5 6 5 4 4 4 4 3 3 2 3 3 4 6 9 8 9 10 5 4 9 12 13 12 9 12 14 11 7
7 9 10 9 8 7 6 5 5 6 4 4 4 4 5 5 5 4 4 3 3 3 3 3 3 3 4 5 5 2 3 7 6 3 6 10 11 9 10 10 9 7 7
8 9 9 9 8 6 6 6 6 6 4 3 4 4 4 3 4 4 4 4 3 4 3 2 3 4 4 7 10 5 4 4 5 4 4 5 6 6 6 7 7 7 8
11 11 10 9 7 6 6 6 7 6 5 4 4 4 4 3 4 4 5 7 6 8 8 8 8 6 8 12 11 9 10 10 10 5 4 5 5 6 7 8 8 8 9
Wind_Direction
246 219 197 173 158 143 116 102 87 65 67 59 45 30 13 359 17 24 31 33 34 37 46 41 33 38 54 61 76 103 103 106 147 137 298 292 259 247 249 245 249 248 240
252 219 194 182 182 155 135 125 119 113 112 124 136 135 61 328 333 350 32 34 30 28 34 41 48 65 76 63 57 64 87 56 46 111 97 10 354 343 268 255 253 263 268
257 224 198 191 187 179 169 158 153 143 134 131 121 96 73 36 8 356 3 9 19 26 30 33 53 89 111 109 95 89 99 70 18 42 92 100 316 319 328 351 322 296 276
286 238 206 191 195 198 184 167 163 160 155 138 127 131 139 172 229 276 307 330 17 33 30 23 33 74 113 126 135 129 132 121 74 29 76 154 171 203 322 324 333 322 294
301 250 221 210 210 204 191 179 171 171 161 151 147 145 165 207 243 273 299 316 339 25 56 32 22 40 121 168 180 170 175 173 167 173 172 153 175 188 197 281 311 316 294
312 250 228 224 224 217 209 192 185 186 166 155 160 174 188 214 241 259 276 303 334 357 21 11 359 333 273 242 232 220 206 201 201 198 184 176 181 199 196 224 261 284 293
309 269 235 229 226 218 216 209 206 206 186 178 178 181 190 208 241 260 259 334 11 6 0 1 330 301 279 271 257 247 245 223 211 211 210 204 207 197 191 203 243 264 285
329 295 261 242 235 228 221 215 217 211 183 170 133 93 98 118 117 92 100 74 47 10 1 352 328 306 287 268 245 237 246 233 230 229 221 215 220 204 196 199 208 260 287
338 316 289 265 248 241 233 222 220 208 169 142 115 93 84 87 91 84 80 70 44 32 18 358 338 321 310 299 275 246 255 240 232 234 232 228 234 218 211 206 197 207 256
333 329 313 294 280 264 250 233 219 194 157 138 128 115 101 96 100 94 77 61 32 9 347 332 321 315 315 319 310 279 268 258 252 237 232 235 236 226 214 209 208 204 220
330 327 321 310 294 277 255 229 196 158 137 127 118 108 95 90 83 73 54 33 11 351 330 310 303 303 304 308 303 286 274 261 264 258 240 244 236 221 216 204 200 204 201
328 327 322 314 302 284 257 208 160 134 118 114 104 91 84 86 83 70 45 20 4 349 326 312 306 302 299 296 285 281 283 276 274 275 263 256 245 225 212 196 196 197 201
327 331 329 324 317 302 249 135 117 111 106 103 91 90 93 86 70 42 10 1 358 346 329 323 316 305 296 286 275 263 307 339 338 334 313 293 255 227 172 157 167 208 231
331 339 341 343 348 0 37 68 74 90 97 89 97 117 124 85 45 8 351 357 359 346 331 318 306 298 297 303 19 73 62 49 43 38 33 30 39 40 39 30 334 305 297
327 337 343 348 357 5 15 34 44 49 79 103 125 141 144 81 48 24 20 11 2 352 333 329 349 8 28 51 57 52 51 46 40 36 30 33 33 29 25 17 9 356 314
307 310 322 335 349 357 0 12 25 24 32 83 110 112 73 45 26 17 26 14 358 352 10 36 41 35 38 56 60 58 48 44 38 33 28 28 28 18 11 2 357 355 344
289 268 252 238 230 243 351 2 3 0 7 26 35 27 17 4 1 22 31 15 6 29 48 40 41 33 25 42 55 57 55 44 33 28 27 25 16 9 347 352 2 355 342
288 266 243 229 218 201 171 89 29 14 21 25 21 11 3 355 355 33 36 16 28 51 60 45 40 34 20 29 42 54 49 41 25 14 17 14 357 348 353 359 355 348 341
287 270 235 199 174 147 90 77 48 27 19 12 6 2 356 351 3 43 42 37 48 50 59 49 39 32 11 15 21 43 37 29 15 8 6 1 343 341 347 350 341 339 330
288 268 162 132 126 108 98 87 59 33 10 354 352 353 352 1 38 52 54 58 59 54 58 53 38 28 9 7 7 16 32 12 0 3 4 354 341 337 341 341 340 329 316
298 138 124 119 113 106 104 90 66 27 350 344 356 3 360 16 47 47 48 49 58 60 54 51 33 16 10 4 4 11 22 26 12 360 349 335 340 339 337 340 336 315 327
283 126 120 108 86 76 85 80 52 359 344 359 15 16 17 20 36 39 43 42 39 39 24 23 23 0 350 353 353 6 6 14 26 347 327 328 341 343 346 345 333 337 346
153 131 123 110 87 68 67 63 21 353 356 19 26 30 32 24 18 28 36 34 27 19 358 360 1 337 329 329 337 352 356 352 351 325 337 344 348 350 348 343 350 356 349
118 118 113 103 86 67 51 37 12 4 7 17 20 35 29 20 9 11 24 26 1 338 344 345 329 310 305 305 299 285 331 344 333 344 353 352 349 351 347 348 348 344 330
84 87 87 85 75 59 41 23 17 14 9 22 27 33 32 13 4 8 359 352 314 310 325 289 286 296 295 303 324 353 339 334 319 15 11 354 348 346 342 338 337 334 328
64 68 70 72 63 48 34 17 14 20 13 20 28 23 15 358 4 2 352 339 328 332 337 330 323 310 308 314 329 341 341 344 350 19 353 342 337 333 330 329 327 325 322
Height
1459 1461 1462 1462 1463 1464 1465 1466 1466 1466 1466 1465 1465 1465 1465 1465 1464 1464 1464 1464 1464 1463 1462 1462 1461 1460 1460 1459 1459 1460 1460 1461 1461 1462 1463 1464 1465 1466 1467 1469 1470 1471 1472
1455 1456 1457 1458 1459 1461 1462 1462 1463 1463 1463 1462 1462 1462 1463 1464 1464 1463 1462 1462 1462 1462 1461 1461 1460 1459 1458 1457 1457 1458 1457 1457 1457 1457 1457 1458 1460 1460 1462 1463 1464 1465 1465
1451 1451 1452 1454 1456 1458 1459 1459 1459 1459 1460 1460 1460 1460 1460 1461 1462 1462 1461 1459 1459 1459 1459 1460 1460 1458 1456 1455 1455 1455 1455 1455 1454 1454 1454 1454 1454 1455 1457 1458 1459 1459 1460
1449 1448 1450 1451 1453 1455 1456 1456 1456 1456 1456 1457 1457 1457 1458 1458 1458 1458 1458 1457 1456 1456 1456 1457 1457 1456 1455 1454 1454 1454 1453 1453 1453 1453 1453 1454 1453 1454 1453 1454 1455 1455 1454
1451 1449 1450 1452 1452 1453 1453 1453 1454 1454 1454 1454 1454 1454 1454 1455 1455 1455 1455 1454 1453 1453 1454 1454 1454 1454 1453 1453 1452 1452 1452 1452 1452 1452 1452 1452 1451 1451 1451 1450 1450 1450 1451
1452 1449 1449 1451 1451 1451 1451 1451 1451 1451 1451 1452 1452 1452 1452 1452 1452 1451 1452 1451 1450 1450 1450 1450 1451 1451 1451 1451 1450 1450 1450 1449 1449 1449 1449 1449 1449 1449 1448 1448 1447 1446 1446
1455 1450 1448 1448 1448 1449 1448 1449 1449 1448 1448 1449 1449 1449 1449 1449 1448 1448 1448 1447 1445 1445 1445 1446 1447 1448 1448 1448 1447 1446 1446 1445 1445 1445 1445 1445 1445 1445 1445 1444 1443 1442 1441
1456 1451 1447 1445 1446 1447 1446 1446 1445 1445 1445 1445 1446 1446 1446 1445 1445 1444 1444 1443 1441 1440 1440 1441 1443 1444 1443 1443 1442 1441 1441 1440 1440 1440 1440 1440 1440 1440 1440 1440 1440 1438 1437
1457 1452 1448 1445 1444 1444 1443 1442 1442 1441 1440 1440 1442 1442 1442 1442 1441 1440 1439 1438 1436 1435 1435 1436 1437 1438 1437 1436 1436 1436 1435 1435 1435 1435 1434 1433 1434 1435 1435 1435 1436 1436 1433
1457 1451 1447 1445 1444 1442 1440 1439 1437 1436 1434 1434 1435 1436 1437 1437 1437 1436 1434 1432 1431 1431 1430 1431 1431 1431 1430 1429 1429 1429 1429 1429 1430 1429 1427 1427 1428 1428 1429 1430 1430 1430 1430
1457 1450 1445 1441 1439 1437 1436 1434 1431 1429 1428 1427 1428 1431 1432 1432 1431 1430 1429 1427 1426 1425 1424 1424 1423 1422 1421 1420 1420 1421 1422 1422 1422 1421 1421 1421 1421 1421 1422 1423 1424 1425 1425
1457 1449 1442 1435 1431 1428 1426 1425 1423 1421 1420 1422 1423 1426 1429 1428 1426 1424 1422 1421 1419 1417 1416 1415 1414 1413 1412 1411 1411 1412 1413 1413 1413 1413 1412 1413 1414 1414 1416 1417 1418 1419 1419
1454 1446 1438 1430 1423 1418 1416 1414 1412 1413 1414 1416 1418 1423 1424 1423 1420 1418 1416 1414 1412 1410 1410 1408 1407 1405 1404 1403 1403 1405 1405 1405 1404 1404 1404 1405 1406 1407 1409 1410 1411 1412 1413
1452 1444 1435 1427 1419 1413 1409 1407 1407 1409 1409 1412 1416 1419 1419 1417 1414 1412 1410 1408 1406 1405 1405 1404 1403 1402 1401 1400 1400 1400 1400 1399 1398 1398 1398 1399 1400 1401 1403 1404 1405 1406 1406
1450 1443 1436 1429 1422 1416 1412 1408 1407 1408 1409 1412 1414 1414 1413 1411 1409 1407 1406 1404 1403 1403 1403 1402 1401 1400 1399 1397 1397 1396 1396 1395 1395 1394 1394 1395 1395 1396 1398 1399 1399 1399 1399
1446 1441 1436 1431 1426 1421 1417 1413 1410 1409 1410 1410 1410 1410 1408 1406 1405 1404 1402 1402 1402 1402 1402 1401 1399 1397 1396 1395 1394 1393 1393 1392 1392 1392 1391 1391 1392 1392 1393 1393 1393 1394 1394
1442 1437 1433 1429 1424 1421 1418 1414 1411 1409 1408 1407 1407 1406 1405 1404 1403 1402 1401 1400 1401 1401 1400 1399 1397 1395 1394 1393 1391 1391 1391 1390 1390 1389 1388 1387 1387 1387 1387 1386 1387 1387 1387
1436 1431 1428 1424 1420 1417 1413 1411 1409 1407 1406 1404 1404 1403 1403 1403 1401 1400 1399 1400 1400 1399 1398 1397 1395 1394 1392 1391 1389 1388 1389 1388 1388 1386 1385 1383 1382 1382 1382 1380 1380 1380 1380
1430 1426 1422 1419 1416 1414 1411 1408 1406 1404 1403 1402 1402 1402 1402 1401 1400 1399 1399 1398 1398 1397 1396 1395 1393 1392 1390 1389 1387 1386 1386 1385 1385 1383 1381 1379 1378 1377 1377 1375 1374 1373 1373
1422 1419 1415 1413 1411 1409 1407 1405 1404 1402 1402 1401 1401 1401 1400 1399 1398 1398 1397 1397 1396 1395 1394 1393 1392 1390 1388 1386 1385 1384 1383 1382 1381 1379 1377 1375 1374 1373 1372 1370 1369 1367 1366
1415 1412 1409 1407 1407 1406 1404 1402 1401 1400 1400 1400 1399 1399 1399 1398 1397 1396 1395 1394 1394 1394 1393 1391 1389 1387 1385 1383 1383 1382 1381 1379 1377 1375 1373 1371 1370 1369 1367 1366 1364 1362 1361
1408 1405 1404 1403 1403 1403 1402 1400 1399 1399 1398 1398 1398 1397 1397 1396 1394 1394 1393 1392 1392 1392 1391 1389 1387 1385 1383 1381 1381 1380 1379 1377 1374 1372 1370 1368 1366 1365 1363 1360 1358 1357 1354
1402 1401 1400 1400 1400 1400 1400 1399 1398 1398 1398 1397 1396 1395 1394 1393 1392 1391 1390 1390 1389 1389 1388 1386 1384 1383 1381 1380 1379 1377 1376 1374 1371 1369 1366 1364 1362 1360 1359 1356 1353 1350 1348
1398 1398 1398 1399 1399 1399 1399 1399 1398 1397 1397 1396 1394 1392 1392 1391 1391 1390 1388 1388 1388 1387 1386 1384 1382 1381 1380 1379 1377 1375 1372 1370 1368 1364 1362 1360 1358 1356 1354 1352 1349 1346 1344
1398 1399 1399 1399 1399 1399 1399 1399 1397 1396 1396 1394 1393 1391 1391 1391 1390 1388 1387 1387 1386 1386 1385 1382 1381 1378 1377 1376 1376 1373 1370 1367 1364 1361 1357 1355 1353 1351 1348 1346 1344 1341 1339
1402 1401 1401 1401 1401 1401 1400 1399 1397 1396 1396 1395 1393 1391 1390 1390 1388 1387 1386 1385 1385 1383 1382 1380 1378 1375 1374 1373 1371 1369 1367 1363 1360 1356 1353 1350 1347 1345 1342 1339 1337 1335 1333